[[{"header":{"parameterUnit":"m.s-1","parameterCategory":1,"la1":30.2991,"la2":30.254,"lo1":-89.0895,"lo2":-89.0444,"dy":0.0017,"dx":0.0017,"nx":28,"ny":28,"refTime":"2025-03-11T03:00:00:Z","depth":0,"parameterNumber":2,"parameterNumberName":"U-component_of_WINDS"},"data":[0,0,0,0,0,0,0,0,0,0,0,0,0,0,0,0,0,0,0,0,0,0,0,0,0,0,0,0,0,0,0,0,0,0,0,0,0,0,0,0,0,0,0,0,0,0,0,0,0,0,0,0,0,0,0,0,0,0,0.7901,0.7902,0,0.8,0.8001,0.8002,0.8093,0.8094,0.8095,0.8096,0.8197,0.8198,0.82,0,0,0,0,0,0,0,0,0,0,0,0,0,0.7788,0.779,0.7901,0.7902,0.7903,0.8,0.8001,0.8002,0.8093,0.8094,0.8096,0.8097,0.8196,0.8198,0.82,0,0,0,0,0,0,0,0,0,0,0,0,0,0.7857,0.779,0.79,0.796,0.7966,0.7999,0.8001,0.8003,0.8093,0.8094,0.8096,0.8098,0.8196,0.8198,0.8201,0.8182,0,0,0.8208,0.8209,0,0,0,0,0,0,0,0,0.7853,0.7861,0.795,0.7956,0.7963,0.8036,0.7998,0.8063,0.8092,0.8045,0.8096,0.8098,0.8142,0.8149,0.8164,0.8187,0.8191,0.8208,0.821,0.8211,0.8212,0,0,0,0,0,0,0,0.7848,0.7857,0.794,0.7951,0.7959,0.7981,0.7993,0.8011,0.8083,0.8049,0.8056,0.8066,0.8146,0.8161,0.8167,0.8193,0.8208,0.821,0.8212,0.8213,0.8206,0.8204,0,0,0,0,0,0,0.7834,0.7853,0.7937,0.7943,0.7911,0.7982,0.7995,0.8011,0.8083,0.8095,0.8065,0.807,0.8156,0.8164,0.8171,0.8154,0.8211,0.8213,0.8215,0.8208,0.8206,0.8204,0,0,0,0,0,0,0.7831,0.7841,0.7933,0.79,0.7913,0.7982,0.7999,0.8012,0.8027,0.8095,0.8108,0.8067,0.8158,0.8167,0.8179,0.8159,0.8214,0.8216,0.821,0.8207,0.8205,0.8121,0,0,0,0,0,0,0.7828,0.7839,0.7834,0.7899,0.7914,0.7939,0.7998,0.8013,0.8032,0.804,0.8101,0.8112,0.816,0.8175,0.8181,0.8163,0.8218,0.8212,0.8208,0.8205,0.8125,0.8115,0.8107,0,0,0,0,0,0.7824,0.7806,0.7833,0.7842,0.7909,0.7938,0.7947,0.8002,0.803,0.8024,0.8067,0.8111,0.816,0.8175,0.8183,0.8166,0.8213,0.8209,0.8206,0.813,0.8117,0.8107,0,0,0,0,0,0,0.7736,0.7816,0.7846,0.7849,0.7886,0.7953,0.7948,0.7988,0.8017,0.8023,0.809,0.8103,0.8107,0.8138,0.8153,0.8152,0.8192,0.819,0.8132,0.8121,0.8112,0.8104,0.822,0,0,0,0,0,0.7717,0.7735,0.7803,0.7799,0.7816,0.7878,0.7893,0.7933,0.7974,0.7989,0.8034,0.8071,0.8095,0.811,0.8136,0.813,0.8144,0.8122,0.8113,0.8105,0.8102,0.8101,0.8092,0.8191,0.8191,0.8192,0,0,0.7678,0.7724,0.7731,0.7783,0.7816,0.7832,0.7891,0.7906,0.7919,0.7992,0.8006,0.8039,0.8085,0.8088,0.8091,0.8113,0.8078,0.81,0.8093,0.8095,0.8096,0.8087,0.8078,0.8189,0.8189,0.819,0,0,0.7616,0.7652,0.7653,0.7685,0.7734,0.7776,0.7776,0.7837,0.7862,0.7877,0.7932,0.7948,0.7988,0.8018,0.8039,0.7987,0.8028,0.7993,0.7945,0.7943,0.7936,0.7929,0.791,0.7902,0.7991,0.799,0.799,0,0.7561,0.7589,0.7648,0.7659,0.768,0.7747,0.7748,0.7776,0.7831,0.7844,0.7868,0.7919,0.7955,0.7966,0.7953,0.7967,0.7969,0.7987,0.7932,0.7926,0.7921,0.7903,0.7896,0.7986,0.7986,0.7987,0.7987,0,0.7519,0.7536,0.7531,0.7583,0.7603,0.7609,0.7668,0.7682,0.7719,0.7757,0.7771,0.7816,0.7852,0.7858,0.7894,0.7873,0.7885,0.792,0.7962,0.7905,0.789,0.7884,0.7979,0.7981,0.7982,0.7983,0,0,0.7404,0.7489,0.7486,0.751,0.7569,0.7584,0.7592,0.7628,0.7637,0.7673,0.7681,0.7713,0.7745,0.7769,0.7809,0.7807,0.7762,0.7842,0.7844,0.7825,0.7742,0.7715,0.7707,0.779,0.7789,0.7788,0.7738,0,0.7352,0.7372,0.7425,0.7428,0.7445,0.7509,0.7516,0.7553,0.7589,0.7608,0.7648,0.7669,0.771,0.7724,0.7726,0.7768,0.7747,0.7772,0.7798,0.7798,0.7784,0.7699,0.7672,0.7622,0.7732,0.7731,0.773,0,0.7293,0.7325,0.7329,0.7388,0.7397,0.7402,0.7439,0.7457,0.7499,0.7526,0.7551,0.7596,0.7608,0.7646,0.7663,0.7679,0.7693,0.7715,0.7714,0.7719,0.7761,0.7701,0.7607,0.76,0.7722,0.7722,0.7723,0,0.7209,0.7253,0.7261,0.728,0.7348,0.735,0.7379,0.7423,0.7441,0.7472,0.7484,0.7516,0.7534,0.7557,0.7609,0.7633,0.762,0.7663,0.7642,0.764,0.7636,0.7636,0.7543,0.7645,0.7645,0.7645,0.7645,0,0.7144,0.7145,0.7224,0.7229,0.7232,0.7292,0.7293,0.7327,0.7366,0.7378,0.7435,0.7445,0.7513,0.7531,0.7571,0.7578,0.7586,0.7607,0.7618,0.7602,0.7599,0.7612,0.7617,0.7643,0.7643,0.7644,0.7644,0,0.7051,0.7104,0.7118,0.7181,0.7197,0.7195,0.7249,0.7256,0.7296,0.731,0.7317,0.7379,0.7403,0.7457,0.7495,0.7522,0.7519,0.7539,0.7505,0.7512,0.7487,0.7488,0.7399,0.739,0.7497,0.7496,0.7495,0,0.7006,0.7008,0.7071,0.7084,0.711,0.713,0.7148,0.7208,0.7224,0.7272,0.7273,0.7302,0.7328,0.7363,0.741,0.744,0.746,0.7427,0.7465,0.7449,0.7459,0.7459,0.7459,0.7419,0.7417,0.7416,0.7415,0,0.6921,0.6947,0.6972,0.7005,0.7026,0.7055,0.7087,0.7094,0.7161,0.7176,0.7202,0.7222,0.7261,0.7288,0.7324,0.7353,0.7394,0.7402,0.7399,0.7383,0.7363,0.7373,0.7482,0.7404,0.7405,0.7406,0.7407,0.7407,0.6851,0.6855,0.69,0.6926,0.6956,0.6984,0.6994,0.7034,0.7057,0.7094,0.7127,0.7149,0.7191,0.7244,0.727,0.7287,0.7308,0.7303,0.7302,0.73,0.7293,0.736,0.7294,0.7294,0.7295,0.7295,0.7295,0,0.6768,0.6801,0.6823,0.6866,0.6886,0.6924,0.6961,0.6975,0.6993,0.7029,0.7053,0.7082,0.7108,0.7158,0.7188,0.7192,0.7212,0.7198,0.7199,0.7204,0.7272,0.7272,0.7182,0.7182,0.7182,0.7182,0.7182,0.7182,0.6728,0.6737,0.6768,0.6793,0.6825,0.6847,0.6865,0.6892,0.692,0.695,0.6972,0.7004,0.7045,0.7079,0.7105,0.7119,0.7127,0.7107,0.7126,0.7189,0.72,0.721,0.721,0.7108,0.7108,0.7057,0.7057,0.7057]},{"header":{"parameterUnit":"m.s-1","parameterCategory":1,"la1":30.2991,"la2":30.254,"lo1":-89.0895,"lo2":-89.0444,"dy":0.0017,"dx":0.0017,"nx":28,"ny":28,"refTime":"2025-03-11T03:00:00:Z","depth":0,"parameterNumber":3,"parameterNumberName":"V-component_of_WINDS"},"data":[0,0,0,0,0,0,0,0,0,0,0,0,0,0,0,0,0,0,0,0,0,0,0,0,0,0,0,0,0,0,0,0,0,0,0,0,0,0,0,0,0,0,0,0,0,0,0,0,0,0,0,0,0,0,0,0,0,0,3.812,3.812,0,3.8127,3.8127,3.8127,3.815,3.815,3.8151,3.8151,3.8156,3.8156,3.8155,0,0,0,0,0,0,0,0,0,0,0,0,0,3.8125,3.8124,3.812,3.812,3.812,3.8127,3.8127,3.8127,3.815,3.815,3.8151,3.8152,3.8156,3.8156,3.8155,0,0,0,0,0,0,0,0,0,0,0,0,0,3.8126,3.8124,3.812,3.8132,3.8134,3.8127,3.8127,3.8127,3.815,3.815,3.8151,3.8152,3.8156,3.8156,3.8155,3.8136,0,0,3.8154,3.8153,0,0,0,0,0,0,0,0,3.8126,3.8126,3.813,3.8132,3.8133,3.8138,3.813,3.813,3.815,3.8143,3.8151,3.8152,3.8149,3.8149,3.8149,3.8137,3.8137,3.8154,3.8153,3.8153,3.8153,0,0,0,0,0,0,0,3.8126,3.8126,3.8123,3.8131,3.8132,3.8137,3.8138,3.813,3.8142,3.8144,3.8146,3.8146,3.815,3.8149,3.8149,3.8137,3.8154,3.8153,3.8153,3.8153,3.8109,3.8108,0,0,0,0,0,0,3.8124,3.8125,3.8122,3.8123,3.8131,3.8136,3.8137,3.8136,3.8142,3.8144,3.8146,3.8147,3.815,3.815,3.8149,3.8128,3.8153,3.8152,3.8152,3.811,3.8109,3.8108,0,0,0,0,0,0,3.8124,3.8124,3.8122,3.8125,3.8125,3.8135,3.8133,3.8136,3.8135,3.8143,3.8145,3.8143,3.8151,3.815,3.814,3.8128,3.8152,3.8152,3.8111,3.811,3.8109,3.8084,0,0,0,0,0,0,3.8124,3.8124,3.8117,3.8124,3.8125,3.8113,3.8133,3.8135,3.8134,3.8136,3.8141,3.8143,3.8151,3.814,3.8139,3.8128,3.8151,3.8112,3.811,3.8109,3.8086,3.8082,3.8079,0,0,0,0,0,3.8124,3.8109,3.8116,3.8116,3.8117,3.8112,3.8112,3.8123,3.8133,3.8126,3.8132,3.8143,3.813,3.8139,3.8138,3.8126,3.8113,3.8111,3.8109,3.8088,3.8083,3.8079,0,0,0,0,0,0,3.8099,3.811,3.8119,3.8106,3.8108,3.8116,3.8107,3.8117,3.8116,3.8118,3.8131,3.8132,3.8119,3.8122,3.8132,3.8108,3.8123,3.8121,3.8107,3.8103,3.8099,3.8099,3.8151,0,0,0,0,0,3.8092,3.8088,3.8098,3.8085,3.8086,3.8097,3.8095,3.8103,3.8106,3.8106,3.8111,3.8112,3.8109,3.8106,3.8103,3.8087,3.8088,3.8078,3.8075,3.8072,3.807,3.8061,3.8057,3.8102,3.8102,3.8102,0,0,3.8078,3.8083,3.808,3.8081,3.8083,3.8078,3.8097,3.8091,3.8087,3.8105,3.8096,3.8099,3.8102,3.8088,3.8082,3.809,3.8057,3.8069,3.8067,3.8066,3.8059,3.8054,3.8051,3.8101,3.8101,3.8101,0,0,3.8048,3.8052,3.8042,3.8045,3.8049,3.8056,3.8054,3.8061,3.8064,3.8055,3.8068,3.8064,3.8057,3.8058,3.8058,3.803,3.804,3.8029,3.801,3.8002,3.7998,3.7995,3.7985,3.7981,3.8026,3.8026,3.8026,0,3.8029,3.8023,3.8036,3.8029,3.8029,3.8046,3.8036,3.8037,3.804,3.8039,3.8048,3.804,3.8043,3.803,3.8023,3.8023,3.802,3.8028,3.7998,3.7995,3.7992,3.7982,3.7978,3.8025,3.8025,3.8025,3.8025,0,3.7999,3.7995,3.7986,3.7989,3.7988,3.798,3.7991,3.7988,3.7996,3.8002,3.7993,3.7997,3.7995,3.7993,3.8,3.7981,3.7985,3.7996,3.8011,3.7986,3.7977,3.7974,3.8023,3.8024,3.8024,3.8024,0,0,3.7954,3.7965,3.7961,3.7963,3.7969,3.7966,3.7958,3.7957,3.7954,3.7956,3.7949,3.7944,3.7953,3.7953,3.7961,3.7954,3.7931,3.7965,3.7965,3.7958,3.791,3.7902,3.7897,3.7938,3.7937,3.7937,3.7909,0,3.7926,3.7914,3.7925,3.7911,3.7907,3.7923,3.7916,3.7919,3.7924,3.7921,3.7927,3.7923,3.7936,3.7936,3.793,3.7935,3.7921,3.7937,3.7931,3.7931,3.793,3.7893,3.7884,3.7858,3.7906,3.7905,3.7905,0,3.7892,3.7892,3.7878,3.7885,3.7884,3.7878,3.7878,3.7875,3.7878,3.7883,3.7883,3.7893,3.7885,3.79,3.789,3.79,3.7899,3.7901,3.79,3.79,3.7916,3.7891,3.785,3.7846,3.79,3.79,3.79,0,3.786,3.7857,3.7848,3.7849,3.7858,3.7853,3.7856,3.786,3.7859,3.7859,3.7859,3.7857,3.7857,3.7855,3.7865,3.7875,3.7853,3.7869,3.7856,3.7855,3.785,3.785,3.7808,3.7849,3.7849,3.7849,3.7849,0,3.7827,3.7817,3.7834,3.7828,3.7818,3.7831,3.782,3.7825,3.7828,3.7824,3.7837,3.7832,3.7845,3.7842,3.7849,3.7839,3.7838,3.7841,3.7843,3.784,3.784,3.7839,3.7841,3.7848,3.7849,3.7849,3.7849,0,3.7789,3.78,3.7791,3.7801,3.7803,3.7794,3.7802,3.7797,3.7804,3.7797,3.7797,3.7807,3.7803,3.7813,3.781,3.7815,3.7801,3.7806,3.78,3.7801,3.7788,3.7789,3.7743,3.7738,3.7783,3.7782,3.7782,0,3.7768,3.7761,3.777,3.7768,3.7771,3.7767,3.7767,3.778,3.7778,3.7782,3.7776,3.7774,3.7772,3.7766,3.7772,3.7771,3.7775,3.776,3.7775,3.7772,3.7775,3.7775,3.7775,3.7756,3.7756,3.7755,3.7755,0,3.7728,3.7734,3.7733,3.7734,3.7733,3.7734,3.7735,3.7733,3.7747,3.7744,3.7741,3.774,3.7738,3.7736,3.7735,3.7738,3.7748,3.775,3.7747,3.7743,3.774,3.7742,3.7791,3.7751,3.7751,3.7752,3.7752,3.7752,3.7698,3.7693,3.7698,3.7697,3.77,3.7701,3.7697,3.7703,3.7701,3.7701,3.7709,3.7704,3.7708,3.7709,3.771,3.7707,3.7714,3.7709,3.7708,3.7707,3.7704,3.7741,3.7706,3.7707,3.7707,3.7707,3.7707,0,3.7659,3.7664,3.7662,3.7665,3.7663,3.7674,3.7677,3.7675,3.7671,3.7674,3.7673,3.7669,3.7667,3.7674,3.7672,3.7668,3.7673,3.7667,3.7667,3.7668,3.7698,3.7701,3.7663,3.7663,3.7663,3.7663,3.7663,3.7663,3.7639,3.7631,3.7637,3.763,3.7635,3.7631,3.7632,3.7633,3.7635,3.7631,3.763,3.7635,3.7639,3.7638,3.7636,3.7638,3.7637,3.763,3.7633,3.7661,3.7666,3.767,3.7672,3.7629,3.7629,3.7603,3.7603,3.7603]}]]